QPF
0.00 0.00 0.00 0.00 0.00 0.00 0.00 0.00 0.00 0.00 0.00 0.00 0.00 0.00 0.00 0.00 0.00 0.00 0.00 0.00 0.00 0.00
0.00 0.00 0.00 0.00 0.00 0.00 0.00 0.00 0.00 0.00 0.00 0.00 0.00 0.00 0.00 0.00 0.00 0.00 0.00 0.00 0.00 0.00
0.00 0.00 0.00 0.00 0.00 0.00 0.00 0.00 0.00 0.00 0.00 0.00 0.00 0.00 0.00 0.00 0.00 0.00 0.00 0.00 0.00 0.00
0.00 0.00 0.00 0.00 0.00 0.00 0.00 0.00 0.00 0.00 0.00 0.00 0.00 0.00 0.00 0.00 0.00 0.00 0.00 0.00 0.00 0.00
0.00 0.00 0.00 0.00 0.00 0.00 0.00 0.00 0.00 0.00 0.00 0.00 0.00 0.00 0.00 0.00 0.00 0.00 0.00 0.00 0.00 0.00
0.00 0.00 0.00 0.00 0.00 0.00 0.00 0.00 0.00 0.00 0.00 0.00 0.00 0.00 0.00 0.00 0.00 0.00 0.00 0.00 0.00 0.00
0.00 0.00 0.00 0.00 0.00 0.00 0.00 0.00 0.00 0.00 0.00 0.00 0.00 0.00 0.00 0.00 0.00 0.00 0.00 0.00 0.00 0.00
0.00 0.00 0.00 0.00 0.00 0.00 0.00 0.00 0.00 0.00 0.00 0.00 0.00 0.00 0.00 0.00 0.00 0.00 0.00 0.00 0.00 0.00
0.00 0.00 0.00 0.00 0.00 0.00 0.00 0.00 0.00 0.00 0.00 0.00 0.00 0.00 0.00 0.00 0.00 0.00 0.00 0.00 0.00 0.00
0.00 0.00 0.00 0.00 0.00 0.00 0.00 0.00 0.00 0.00 0.00 0.00 0.00 0.00 0.00 0.00 0.00 0.00 0.00 0.00 0.00 0.00
0.00 0.00 0.00 0.00 0.00 0.00 0.00 0.00 0.00 0.00 0.00 0.00 0.00 0.00 0.00 0.00 0.00 0.00 0.00 0.00 0.00 0.00
0.00 0.00 0.00 0.00 0.00 0.00 0.00 0.00 0.00 0.00 0.00 0.00 0.00 0.00 0.00 0.00 0.00 0.00 0.00 0.00 0.00 0.00
0.00 0.00 0.00 0.00 0.00 0.00 0.00 0.00 0.00 0.00 0.00 0.00 0.00 0.00 0.00 0.00 0.00 0.00 0.00 0.00 0.00 0.00
0.00 0.00 0.00 0.00 0.00 0.00 0.00 0.00 0.00 0.00 0.00 0.00 0.00 0.00 0.00 0.00 0.00 0.00 0.00 0.00 0.00 0.00
MSLP
1023.62 1023.39 1023.10 1022.78 1022.34 1021.87 1021.36 1020.84 1020.17 1019.64 1019.22 1018.76 1018.22 1017.62 1016.99 1016.80 1016.43 1016.09 1015.72 1015.26 1014.92 1014.72
1023.67 1023.34 1023.04 1022.60 1022.29 1021.83 1021.26 1020.68 1020.21 1019.86 1019.51 1019.00 1018.57 1018.12 1017.71 1017.42 1017.10 1016.75 1016.45 1016.11 1015.70 1015.32
1023.79 1023.48 1023.14 1022.72 1022.34 1021.87 1021.39 1020.93 1020.53 1020.17 1019.86 1019.47 1019.01 1018.66 1018.34 1017.98 1017.69 1017.34 1017.10 1016.83 1016.45 1016.20
1023.84 1023.63 1023.34 1022.97 1022.60 1022.13 1021.63 1021.07 1020.66 1020.46 1020.16 1019.83 1019.47 1019.13 1018.73 1018.33 1018.05 1017.79 1017.60 1017.32 1017.09 1016.94
1024.04 1023.76 1023.44 1023.19 1022.78 1022.24 1021.84 1021.14 1020.90 1020.70 1020.37 1019.98 1019.62 1019.25 1018.96 1018.75 1018.48 1018.34 1018.18 1017.95 1017.64 1017.47
1024.10 1023.89 1023.72 1023.44 1022.96 1022.46 1022.05 1021.63 1021.21 1020.87 1020.58 1020.30 1020.01 1019.69 1019.38 1019.10 1018.84 1018.71 1018.51 1018.21 1017.98 1017.73
1024.31 1024.19 1023.97 1023.57 1023.07 1022.63 1022.32 1022.08 1021.80 1021.48 1021.14 1020.76 1020.40 1020.06 1019.75 1019.43 1019.16 1018.97 1018.70 1018.36 1018.05 1017.75
1024.66 1024.35 1023.99 1023.59 1023.23 1022.90 1022.71 1022.57 1022.27 1022.00 1021.67 1021.21 1020.66 1020.36 1019.91 1019.56 1019.26 1019.12 1018.96 1018.62 1018.23 1017.81
1024.81 1024.46 1024.12 1023.75 1023.40 1023.07 1022.82 1022.65 1022.51 1022.40 1022.18 1021.74 1021.17 1020.57 1019.91 1019.62 1019.47 1019.29 1019.13 1018.91 1018.31 1017.87
1025.01 1024.65 1024.23 1023.82 1023.42 1023.08 1022.85 1022.75 1022.77 1022.66 1022.45 1022.08 1021.46 1020.78 1020.14 1019.87 1019.70 1019.48 1019.18 1018.80 1018.33 1017.71
1025.11 1024.78 1024.22 1023.87 1023.58 1023.15 1022.85 1022.83 1022.89 1022.86 1022.62 1022.30 1021.80 1021.18 1020.62 1020.24 1019.94 1019.57 1019.07 1018.68 1018.27 1017.85
1024.97 1024.70 1024.40 1024.13 1023.79 1023.43 1023.18 1022.98 1022.98 1022.99 1022.85 1022.61 1022.01 1021.42 1020.91 1020.39 1019.93 1019.51 1019.01 1018.54 1018.10 1017.76
1025.05 1024.84 1024.66 1024.46 1024.23 1023.90 1023.56 1023.33 1023.20 1023.10 1022.96 1022.63 1022.20 1021.54 1021.08 1020.65 1020.24 1019.97 1019.54 1018.68 1018.09 1017.47
1025.11 1025.11 1024.94 1024.70 1024.55 1024.34 1023.97 1023.66 1023.55 1023.41 1023.10 1022.82 1022.42 1021.84 1021.38 1020.92 1020.57 1020.39 1020.02 1019.42 1018.76 1018.01
Thickness
5554 5551 5550 5549 5549 5549 5550 5552 5554 5556 5556 5557 5558 5560 5561 5562 5561 5560 5558 5557 5554 5550
5544 5543 5541 5542 5541 5542 5544 5546 5547 5549 5549 5550 5550 5550 5550 5550 5548 5546 5543 5540 5537 5535
5535 5534 5533 5535 5536 5537 5539 5541 5542 5543 5543 5542 5542 5541 5539 5537 5534 5531 5527 5524 5521 5517
5529 5528 5528 5528 5530 5532 5534 5537 5539 5538 5537 5535 5534 5532 5530 5527 5523 5519 5514 5510 5505 5500
5523 5522 5523 5524 5525 5528 5530 5533 5533 5531 5530 5529 5528 5525 5522 5517 5513 5506 5500 5494 5489 5483
5518 5519 5520 5520 5523 5525 5526 5526 5526 5526 5525 5523 5520 5516 5512 5507 5501 5495 5488 5482 5476 5470
5514 5515 5516 5518 5520 5522 5522 5521 5520 5519 5517 5515 5512 5507 5501 5496 5490 5483 5476 5470 5464 5459
5509 5511 5513 5515 5517 5518 5517 5514 5513 5511 5508 5504 5502 5497 5492 5487 5481 5472 5464 5457 5452 5449
5506 5508 5510 5512 5513 5514 5513 5511 5507 5502 5498 5493 5491 5489 5486 5480 5470 5462 5454 5447 5444 5439
5504 5506 5508 5510 5511 5511 5509 5505 5500 5494 5490 5486 5484 5481 5477 5471 5462 5453 5446 5440 5436 5433
5503 5504 5508 5508 5508 5507 5505 5501 5495 5489 5484 5479 5476 5472 5467 5460 5452 5445 5440 5434 5429 5424
5504 5505 5505 5505 5503 5501 5499 5497 5490 5483 5478 5472 5469 5465 5459 5453 5445 5439 5433 5429 5424 5420
5504 5504 5502 5499 5496 5496 5495 5492 5487 5481 5474 5469 5462 5458 5452 5445 5436 5430 5424 5422 5418 5416
5503 5500 5498 5496 5494 5491 5489 5487 5481 5475 5469 5463 5456 5450 5443 5436 5428 5420 5414 5410 5407 5405